AGROMETEOROLOŠKI PORTAL

vinorodna pokrajina

Temelj dobrega kmetovanja

Pregled podatkov za lokacijo Cerovo, meteorološka postaja 515411

Pregled senzorjev na lokaciji

ID Ime Zadnja
vrednost
Datum in čas
meritve
(lokalni čas)
Tip
senzorja
6556 Omočenost lista (1,5 m) (U) 0 U 1.2.2023 14:00 A730WET
6535 Padavine (mm) 0 mm 1.2.2023 14:00 Generic 0.2 mm
6555 Relativna zračna vlaga (2 m) (%RH) 60 %RH 1.2.2023 14:00 Generic 0 - 100 %
6554 Temperatura (2 m) (°C) 10,3 °C 1.2.2023 14:00 Generic -40 - +60 °C

Pregled podatkov zadnjih 24 ur

Zap.
št.
Datum in čas
(lokalni čas)
Cerovo
Omočenost
lista
(1,5
m)
Padavine Relativna
zračna
vlaga
(2
m)
Temperatura
(2
m)
1 1.2.2023 14:00 0 0 60,3 10,3
2 1.2.2023 13:30 0 0 60,6 10,2
3 1.2.2023 13:00 0 0 61,7 10,3
4 1.2.2023 12:30 0 0 60,1 9,6
5 1.2.2023 12:00 0 0 58,6 9,8
6 1.2.2023 11:30 0 0 58,2 9,6
7 1.2.2023 11:00 0 0 60,9 8,3
8 1.2.2023 10:30 0 0 61,5 8
9 1.2.2023 10:00 0 0 63,6 7,1
10 1.2.2023 09:30 0 0 65,1 6,4
11 1.2.2023 09:00 0 0 68,5 4,8
12 1.2.2023 08:30 0 0 70,6 4,1
13 1.2.2023 08:00 0 0 70,8 4,5
14 1.2.2023 07:30 0 0 70,7 4,5
15 1.2.2023 07:00 0 0 73,5 4,1
16 1.2.2023 06:30 0 0 72,2 4,2
17 1.2.2023 06:00 0 0 72,9 4,7
18 1.2.2023 05:30 0 0 71,7 5
19 1.2.2023 05:00 0 0 71,4 4,6
20 1.2.2023 04:30 0 0 72,4 4,2
21 1.2.2023 04:00 0 0 73 3,2
22 1.2.2023 03:30 0 0 71,4 3,7
23 1.2.2023 03:00 0 0 72,2 4
24 1.2.2023 02:30 0 0 71,4 4,6
25 1.2.2023 02:00 0 0 69,3 4,2
26 1.2.2023 01:30 0 0 69,7 3
27 1.2.2023 01:00 0 0 64,1 4
28 1.2.2023 00:30 0 0 63,2 3,8
29 1.2.2023 00:00 0 0 61,1 3,4
30 31.1.2023 23:30 0 0 56,7 3,9
31 31.1.2023 23:00 0 0 54,7 3,9
32 31.1.2023 22:30 0 0 60,6 3,4
33 31.1.2023 22:00 0 0 61,8 4,3
34 31.1.2023 21:30 0 0 59,7 5,1
35 31.1.2023 21:00 0 0 61,2 5
36 31.1.2023 20:30 0 0 59,3 4,4
37 31.1.2023 20:00 0 0 57,5 4,8
38 31.1.2023 19:30 0 0 54,6 5,6
39 31.1.2023 19:00 0 0 54,3 6,3
40 31.1.2023 18:30 0 0 43,7 7,1
41 31.1.2023 18:00 0 0 45 7,3
42 31.1.2023 17:30 0 0 41,2 7,8
43 31.1.2023 17:00 0 0 36,6 9
44 31.1.2023 16:30 0 0 31,7 10,8
45 31.1.2023 16:00 0 0 32,4 11,4
46 31.1.2023 15:30 0 0 32,5 11,6
47 31.1.2023 15:00 0 0 33,2 11,5
48 31.1.2023 14:30 0 0 35,3 11,2